Flag for France Weather past 2 weeks in Nancy, France

Now
55 °F

Low clouds.


Feels Like: 55 °F
Forecast: 44 / 61 °F
Wind: No wind

Location: Nancy / Ochey

Current Time: Oct 25, 2014 at 2:21:05 PM

Latest Report: Oct 25, 2014 at 2:00 PM


Visibility: N/A

Pressure: 30.15 "Hg

Humidity: 77%

Dew point: 48 °F

Location of NancyLocation

Historic Weather in Nancy — Graph

°F

Nancy temperature yesterday

Maximum temperature yesterday: 55 °F (at 1:30 PM)
Minimum temperature yesterday: 36 °F (at 7:00 AM)
Average temperature yesterday: 46 °F

Past Weeks' High & Low Weather Summary

 TemperatureHumidityPressure
High73 °F (Oct 19, 3:00 PM)100% (Oct 10, 7:30 PM)30.30 "Hg (Oct 10, 7:30 PM)
Low36 °F (Oct 24, 7:00 AM)57% (Oct 19, 4:00 PM)29.74 "Hg (Oct 12, 5:30 PM)
Average55 °F88%30.00 "Hg
* Reported Oct 10 1:00 PM — Oct 25 1:00 PM, Nancy, Weather by CustomWeather, © 2014

Note: Actual official high and low records may vary slightly from our data, if they occured in-between our weather recording intervals... More about our weather records

Advertising

Nancy weather history for previous 24 hours

 ConditionsComfort  
Time TempWeatherWind HumidityBarometerVisibility
1:00 PM
Oct 25
55 °FPartly sunny.No wind77%30.15 "HgN/A
12:30 PM55 °FPartly sunny.1 mph77%30.15 "HgN/A
12:00 PM54 °FClear.2 mph82%30.15 "HgN/A
11:30 AM52 °FBroken clouds.3 mph88%30.15 "HgN/A
11:00 AM52 °FMostly cloudy.5 mph82%30.15 "HgN/A
10:30 AM50 °FPartly sunny.3 mph88%30.12 "HgN/A
10:00 AM50 °FOvercast.3 mph88%30.12 "HgN/A
9:30 AM48 °FPartly sunny.2 mph94%30.12 "HgN/A
9:00 AM48 °FOvercast.No wind94%30.12 "Hg6 mi
8:30 AM48 °FOvercast.2 mph94%30.09 "Hg4 mi
8:00 AM48 °FMostly cloudy.3 mph94%30.09 "Hg4 mi
7:30 AM48 °FMostly cloudy.5 mph94%30.09 "Hg4 mi
7:00 AM48 °FMostly cloudy.5 mph94%30.09 "Hg5 mi
6:30 AM48 °FPassing clouds.5 mph94%30.09 "Hg5 mi
6:00 AM48 °FOvercast.3 mph94%30.09 "HgN/A
5:30 AM48 °FOvercast.3 mph94%30.09 "Hg4 mi
5:00 AM48 °FFog.3 mph94%30.09 "Hg3 mi
4:30 AM48 °FFog.2 mph94%30.09 "Hg3 mi
4:00 AM48 °FMostly cloudy.No wind94%30.09 "HgN/A
3:30 AM48 °FPartly cloudy.3 mph87%30.09 "HgN/A
3:00 AM48 °FCool.6 mph94%30.09 "HgN/A
2:30 AM48 °FPassing clouds.5 mph87%30.09 "HgN/A
2:00 AM48 °FLight rain. Partly cloudy.3 mph87%30.09 "Hg5 mi
1:30 AM48 °FClear.2 mph87%30.09 "HgN/A
1:00 AM48 °FClear.2 mph82%30.09 "HgN/A
12:30 AM48 °FClear.3 mph82%30.09 "HgN/A
12:00 AM48 °FClear.2 mph87%30.09 "HgN/A
11:30 PM
Oct 24
48 °FClear.1 mph82%30.09 "HgN/A
11:00 PM48 °FClear.No wind87%30.09 "HgN/A
10:30 PM48 °FClear.6 mph87%30.09 "HgN/A
10:00 PM48 °FClear.5 mph87%30.09 "HgN/A
9:30 PM48 °FClear.5 mph87%30.09 "HgN/A
9:00 PM50 °FClear.5 mph82%30.09 "HgN/A
8:30 PM50 °FClear.5 mph76%30.09 "HgN/A
8:00 PM50 °FClear.3 mph76%30.09 "HgN/A
7:30 PM50 °FClear.3 mph76%30.09 "HgN/A
7:00 PM52 °FClear.3 mph72%30.09 "HgN/A
6:30 PM52 °FClear.2 mph72%30.09 "HgN/A
6:00 PM52 °FClear.3 mph72%30.09 "HgN/A
5:30 PM54 °FClear.3 mph67%30.09 "HgN/A
5:00 PM54 °FClear.2 mph67%30.09 "HgN/A
4:30 PM54 °FClear.2 mph67%30.09 "HgN/A
4:00 PM54 °FClear.3 mph63%30.09 "HgN/A
3:30 PM55 °FClear.2 mph63%30.12 "HgN/A
3:00 PM54 °FClear.2 mph63%30.12 "HgN/A
2:30 PM54 °FClear.No wind63%30.12 "HgN/A
2:00 PM54 °FClear.2 mph67%30.12 "HgN/A
Weather by CustomWeather, © 2014

See weather overviewHow to use our weather pages